Total_Precipitation_Accumulation
0.00 0.00 0.00 0.00 0.00 0.00 0.00 0.00 0.00 0.00 0.00 0.00 0.00 0.00 0.00 0.00 0.00 0.00 0.00 0.00 0.00 0.00 0.01 0.01 0.01 0.01 0.02 0.03 0.03 0.04 0.05 0.05 0.07 0.10 0.11 0.14 0.17 0.18 0.19 0.24 0.37 0.51 0.53
0.00 0.00 0.00 0.00 0.00 0.00 0.00 0.00 0.00 0.00 0.00 0.00 0.00 0.00 0.00 0.00 0.00 0.00 0.00 0.00 0.00 0.00 0.00 0.00 0.00 0.01 0.01 0.01 0.01 0.02 0.03 0.02 0.02 0.06 0.10 0.08 0.08 0.13 0.13 0.13 0.21 0.33 0.41
0.00 0.00 0.00 0.00 0.00 0.00 0.00 0.00 0.00 0.00 0.00 0.00 0.00 0.00 0.00 0.00 0.00 0.00 0.00 0.00 0.00 0.00 0.00 0.00 0.00 0.00 0.01 0.01 0.01 0.02 0.03 0.04 0.03 0.05 0.16 0.18 0.12 0.09 0.06 0.08 0.13 0.16 0.19
0.00 0.00 0.00 0.00 0.00 0.00 0.00 0.00 0.00 0.00 0.00 0.00 0.00 0.00 0.00 0.00 0.00 0.00 0.00 0.00 0.00 0.00 0.00 0.00 0.00 0.01 0.01 0.01 0.01 0.02 0.03 0.06 0.07 0.05 0.08 0.14 0.16 0.18 0.09 0.03 0.03 0.03 0.04
0.00 0.00 0.00 0.00 0.00 0.00 0.00 0.00 0.00 0.00 0.00 0.00 0.00 0.00 0.00 0.00 0.00 0.00 0.00 0.00 0.00 0.00 0.00 0.00 0.01 0.01 0.01 0.02 0.02 0.03 0.04 0.06 0.09 0.10 0.10 0.10 0.09 0.12 0.16 0.07 0.02 0.03 0.03
0.00 0.00 0.00 0.00 0.00 0.00 0.00 0.00 0.00 0.00 0.00 0.00 0.00 0.00 0.00 0.00 0.00 0.00 0.00 0.00 0.01 0.01 0.00 0.01 0.01 0.01 0.02 0.02 0.04 0.05 0.06 0.07 0.09 0.12 0.14 0.17 0.18 0.13 0.15 0.12 0.04 0.02 0.03
0.00 0.00 0.00 0.00 0.00 0.00 0.00 0.00 0.00 0.00 0.00 0.00 0.00 0.00 0.00 0.00 0.00 0.00 0.00 0.01 0.02 0.02 0.01 0.01 0.02 0.03 0.03 0.04 0.07 0.09 0.10 0.10 0.12 0.14 0.15 0.16 0.16 0.15 0.17 0.17 0.09 0.04 0.01
0.00 0.00 0.00 0.00 0.00 0.00 0.00 0.00 0.00 0.00 0.00 0.00 0.00 0.00 0.00 0.00 0.00 0.00 0.01 0.01 0.03 0.02 0.02 0.02 0.02 0.03 0.05 0.07 0.10 0.13 0.14 0.15 0.17 0.17 0.17 0.17 0.14 0.15 0.18 0.20 0.20 0.14 0.05
0.00 0.00 0.00 0.00 0.00 0.00 0.00 0.00 0.00 0.00 0.00 0.00 0.00 0.00 0.00 0.00 0.00 0.00 0.01 0.01 0.01 0.01 0.02 0.03 0.05 0.06 0.07 0.09 0.11 0.14 0.16 0.19 0.21 0.22 0.23 0.23 0.19 0.18 0.18 0.19 0.24 0.27 0.18
0.00 0.00 0.00 0.00 0.00 0.00 0.00 0.00 0.00 0.00 0.00 0.00 0.00 0.00 0.00 0.00 0.00 0.00 0.01 0.01 0.01 0.02 0.02 0.04 0.07 0.11 0.14 0.15 0.16 0.18 0.18 0.20 0.22 0.26 0.28 0.30 0.30 0.27 0.25 0.23 0.22 0.25 0.27
0.00 0.00 0.00 0.00 0.00 0.00 0.00 0.00 0.00 0.00 0.00 0.00 0.00 0.00 0.00 0.00 0.01 0.02 0.02 0.03 0.03 0.03 0.05 0.07 0.09 0.13 0.18 0.21 0.25 0.25 0.26 0.27 0.26 0.27 0.29 0.30 0.34 0.37 0.35 0.33 0.31 0.27 0.27
0.00 0.00 0.00 0.00 0.00 0.00 0.00 0.01 0.01 0.01 0.00 0.00 0.00 0.00 0.00 0.01 0.02 0.04 0.06 0.06 0.06 0.07 0.09 0.12 0.15 0.20 0.23 0.26 0.32 0.35 0.36 0.41 0.40 0.36 0.35 0.36 0.37 0.40 0.42 0.43 0.40 0.34 0.28
0.00 0.00 0.00 0.00 0.00 0.01 0.01 0.02 0.02 0.01 0.00 0.00 0.00 0.00 0.00 0.01 0.03 0.06 0.10 0.15 0.19 0.21 0.23 0.26 0.31 0.37 0.40 0.42 0.44 0.48 0.56 0.61 0.60 0.57 0.55 0.50 0.48 0.50 0.48 0.48 0.46 0.40 0.33
0.00 0.00 0.00 0.00 0.01 0.01 0.02 0.02 0.01 0.01 0.01 0.00 0.00 0.00 0.01 0.04 0.06 0.09 0.15 0.24 0.34 0.41 0.46 0.50 0.53 0.58 0.66 0.76 0.79 0.76 0.75 0.74 0.73 0.72 0.72 0.72 0.70 0.68 0.63 0.58 0.50 0.45 0.41
0.00 0.00 0.00 0.01 0.02 0.02 0.02 0.02 0.01 0.01 0.01 0.01 0.01 0.02 0.05 0.10 0.17 0.20 0.23 0.31 0.39 0.47 0.51 0.52 0.53 0.58 0.79 1.13 1.19 0.98 0.74 0.63 0.63 0.65 0.68 0.76 0.85 0.85 0.81 0.80 0.64 0.49 0.46
0.00 0.01 0.01 0.02 0.03 0.03 0.03 0.02 0.02 0.03 0.02 0.02 0.03 0.06 0.11 0.18 0.25 0.29 0.32 0.39 0.44 0.47 0.46 0.46 0.46 0.48 0.66 1.05 1.12 0.77 0.47 0.40 0.46 0.53 0.54 0.56 0.68 0.72 0.72 0.77 0.72 0.67 0.64
0.01 0.01 0.03 0.03 0.04 0.04 0.04 0.04 0.03 0.03 0.02 0.04 0.06 0.10 0.13 0.17 0.20 0.23 0.27 0.32 0.30 0.26 0.28 0.33 0.32 0.32 0.43 0.78 0.87 0.49 0.19 0.18 0.25 0.33 0.38 0.40 0.48 0.57 0.55 0.52 0.49 0.55 0.64
0.04 0.04 0.04 0.04 0.03 0.03 0.03 0.03 0.02 0.01 0.02 0.04 0.07 0.10 0.12 0.16 0.14 0.13 0.16 0.19 0.16 0.15 0.18 0.19 0.15 0.13 0.20 0.53 0.69 0.36 0.08 0.09 0.15 0.24 0.30 0.30 0.34 0.46 0.47 0.40 0.39 0.43 0.55
0.04 0.04 0.04 0.03 0.02 0.02 0.02 0.02 0.01 0.01 0.02 0.04 0.05 0.07 0.10 0.14 0.11 0.09 0.10 0.12 0.12 0.11 0.10 0.09 0.06 0.04 0.08 0.35 0.64 0.38 0.06 0.06 0.09 0.18 0.26 0.24 0.20 0.31 0.26 0.26 0.34 0.34 0.41
0.02 0.03 0.02 0.01 0.01 0.01 0.01 0.01 0.00 0.00 0.01 0.02 0.03 0.03 0.04 0.06 0.04 0.03 0.02 0.03 0.04 0.05 0.04 0.02 0.01 0.01 0.02 0.18 0.56 0.51 0.10 0.06 0.07 0.10 0.17 0.25 0.20 0.20 0.17 0.17 0.24 0.29 0.32
0.01 0.01 0.01 0.01 0.00 0.00 0.00 0.00 0.00 0.00 0.00 0.00 0.00 0.00 0.00 0.00 0.00 0.00 0.00 0.01 0.01 0.01 0.01 0.01 0.00 0.00 0.01 0.05 0.33 0.60 0.32 0.11 0.07 0.09 0.16 0.20 0.15 0.11 0.11 0.11 0.18 0.28 0.21
0.00 0.00 0.00 0.00 0.00 0.00 0.00 0.00 0.00 0.00 0.00 0.00 0.00 0.00 0.00 0.00 0.00 0.00 0.00 0.00 0.01 0.01 0.01 0.01 0.01 0.01 0.01 0.04 0.17 0.37 0.44 0.26 0.09 0.11 0.11 0.11 0.08 0.05 0.04 0.05 0.08 0.08 0.07
0.00 0.00 0.00 0.00 0.00 0.00 0.00 0.00 0.00 0.00 0.00 0.00 0.00 0.00 0.00 0.00 0.00 0.01 0.01 0.01 0.01 0.03 0.05 0.04 0.02 0.02 0.02 0.05 0.14 0.15 0.16 0.20 0.15 0.21 0.20 0.06 0.01 0.00 0.01 0.02 0.02 0.02 0.03
0.00 0.00 0.00 0.00 0.00 0.00 0.00 0.00 0.00 0.00 0.00 0.00 0.00 0.00 0.00 0.00 0.00 0.00 0.01 0.02 0.04 0.15 0.18 0.11 0.07 0.04 0.04 0.14 0.27 0.16 0.07 0.08 0.09 0.12 0.12 0.03 0.00 0.00 0.00 0.00 0.00 0.01 0.02
0.00 0.00 0.00 0.00 0.00 0.00 0.00 0.00 0.00 0.00 0.00 0.00 0.00 0.00 0.00 0.00 0.01 0.00 0.01 0.03 0.06 0.22 0.31 0.20 0.18 0.15 0.19 0.31 0.35 0.24 0.20 0.19 0.14 0.06 0.03 0.01 0.00 0.00 0.00 0.00 0.00 0.00 0.01
0.00 0.00 0.00 0.00 0.00 0.00 0.00 0.00 0.00 0.00 0.00 0.00 0.00 0.01 0.01 0.01 0.01 0.01 0.01 0.01 0.03 0.09 0.10 0.11 0.17 0.18 0.27 0.29 0.19 0.17 0.18 0.17 0.12 0.03 0.01 0.01 0.00 0.00 0.00 0.00 0.00 0.00 0.00